Location: Alafon
(8.4500°N, 4.2333°E)
Time: 17:22:59
(UTC+00:00)

SR - Pass Details

Date: 04 August 2021
Orbit: 581 x 874 km, 66.7° (Epoch: 18 September)

Event Time Altitude Azimuth Distance (km) Brightness Sun altitude
Rises 02:47:15 0° 173° (S) 3,421 - -39.1°
Reaches altitude 10° 02:50:13 10° 159° (SSE) 2,505 - -38.4°
Exits shadow 02:54:38 23° 109° (ESE) 1,765 ? -37.5°
Maximum altitude 02:54:43 23° 108° (ESE) 1,765 ? -37.5°
Drops below altitude 10° 02:59:12 10° 58° (ENE) 2,506 ? -36.5°
Sets 03:02:09 0° 44° (NE) 3,423 ? -35.9°
